| time (UTC) | temp F | wind direction | speed MPH | gust MPH | rain 1hr in | rain 24hr in | rain mn in | humidity % | barometer mb |
| 20260906035858 | 56 | 0 | 2.0 | 4.0 | 0.00 | 0.00 | 0.00 | 82 | 1021.3 |
| 20260906032902 | 55 | 0 | 0.0 | 2.0 | 0.00 | 0.00 | 0.00 | 82 | 1021.4 |
| 20260906022856 | 56 | 213 | 1.0 | 4.0 | 0.00 | 0.00 | 0.00 | 80 | 1022.3 |
| 20260906015852 | 56 | 201 | 2.0 | 4.0 | 0.00 | 0.00 | 0.00 | 79 | 1022.3 |
| 20260906012852 | 58 | 206 | 3.0 | 8.0 | 0.00 | 0.00 | 0.00 | 78 | 1022.6 |
| 20260906005900 | 58 | 183 | 3.0 | 6.0 | 0.00 | 0.00 | 0.00 | 76 | 1022.7 |
| 20260906002852 | 58 | 169 | 3.0 | 7.0 | 0.00 | 0.00 | 0.00 | 77 | 1023.0 |
| 20260905232900 | 58 | 170 | 2.0 | 5.0 | 0.00 | 0.00 | 0.00 | 77 | 1023.4 |
| 20260905222843 | 59 | 89 | 1.0 | 6.0 | 0.00 | 0.00 | 0.00 | 76 | 1023.1 |
| 20260905215844 | 59 | 187 | 2.0 | 4.0 | 0.00 | 0.00 | 0.00 | 76 | 1023.1 |
| 20260905212844 | 59 | 128 | 1.0 | 2.0 | 0.00 | 0.00 | 0.00 | 75 | 1023.1 |
| 20260905195842 | 62 | 116 | 1.0 | 3.0 | 0.00 | 0.00 | 0.00 | 71 | 1022.5 |
| 20260905192848 | 62 | 0 | 0.0 | 0.0 | 0.00 | 0.00 | 0.00 | 70 | 1022.8 |
| 20260905185841 | 64 | 355 | 0.0 | 0.0 | 0.00 | 0.00 | 0.00 | 66 | 1022.6 |
| 20260905182837 | 66 | 355 | 0.0 | 2.0 | 0.00 | 0.00 | 0.00 | 62 | 1022.4 |
| 20260905175837 | 69 | 0 | 1.0 | 5.0 | 0.00 | 0.00 | 0.00 | 55 | 1022.2 |
| 20260905172840 | 69 | 0 | 3.0 | 10.0 | 0.00 | 0.00 | 0.00 | 56 | 1022.2 |
| 20260905165836 | 71 | 341 | 3.0 | 8.0 | 0.00 | 0.00 | 0.00 | 52 | 1022.1 |
| 20260905162842 | 70 | 321 | 5.0 | 10.0 | 0.00 | 0.00 | 0.00 | 53 | 1022.1 |
| 20260905155837 | 71 | 0 | 4.0 | 11.0 | 0.00 | 0.00 | 0.00 | 54 | 1022.3 |
| 20260905152836 | 72 | 298 | 5.0 | 11.0 | 0.00 | 0.00 | 0.00 | 52 | 1022.1 |
| 20260905142835 | 72 | 0 | 8.0 | 17.0 | 0.00 | 0.00 | 0.00 | 52 | 1022.0 |
| 20260905135834 | 72 | 304 | 5.0 | 14.0 | 0.00 | 0.00 | 0.00 | 54 | 1022.0 |
| 20260905132832 | 69 | 313 | 5.0 | 13.0 | 0.00 | 0.00 | 0.00 | 55 | 1021.8 |
| 20260905125831 | 68 | 0 | 7.0 | 16.0 | 0.00 | 0.00 | 0.00 | 56 | 1021.7 |
| 20260905122830 | 68 | 259 | 7.0 | 15.0 | 0.00 | 0.00 | 0.00 | 61 | 1021.6 |
| 20260905115829 | 67 | 0 | 7.0 | 14.0 | 0.00 | 0.00 | 0.00 | 61 | 1021.5 |
| 20260905105827 | 66 | 254 | 11.0 | 19.0 | 0.00 | 0.00 | 0.00 | 64 | 1021.1 |
| 20260905102827 | 65 | 0 | 10.0 | 18.0 | 0.00 | 0.00 | 0.00 | 64 | 1021.1 |
| 20260905095834 | 64 | 288 | 9.0 | 18.0 | 0.00 | 0.00 | 0.00 | 65 | 1020.9 |
| 20260905092825 | 64 | 289 | 8.0 | 19.0 | 0.00 | 0.00 | 0.00 | 68 | 1020.8 |
| 20260905085825 | 62 | 0 | 12.0 | 19.0 | 0.00 | 0.00 | 0.00 | 71 | 1020.5 |
| 20260905082828 | 61 | 271 | 9.0 | 16.0 | 0.00 | 0.00 | 0.00 | 75 | 1020.1 |
| 20260905075823 | 60 | 0 | 10.0 | 18.0 | 0.00 | 0.01 | 0.00 | 77 | 1019.8 |
| 20260905072824 | 59 | 258 | 10.0 | 16.0 | 0.00 | 0.02 | 0.00 | 80 | 1019.6 |
| 20260905065825 | 58 | 235 | 6.0 | 13.0 | 0.00 | 0.06 | 0.00 | 82 | 1019.2 |
| 20260905062826 | 57 | 270 | 6.0 | 11.0 | 0.00 | 0.09 | 0.00 | 83 | 1018.7 |
| 20260905055823 | 56 | 0 | 7.0 | 13.0 | 0.00 | 0.42 | 0.00 | 83 | 1018.5 |
| 20260905052822 | 56 | 282 | 6.0 | 11.0 | 0.00 | 0.44 | 0.00 | 84 | 1018.2 |
| 20260905045823 | 56 | 297 | 5.0 | 11.0 | 0.00 | 0.44 | 0.00 | 84 | 1018.1 |
| 20260905042823 | 56 | 0 | 5.0 | 10.0 | 0.00 | 0.44 | 0.00 | 84 | 1017.7 |